Location: Sangrey
(48.2845°N, 109.8206°W)
Time: 23:12:53
(UTC+00:00)

Envisat - Pass Details

Date: 29 January 2022
Orbit: 764 x 765 km, 98.2° (Epoch: 21 May)

Event Time Altitude Azimuth Distance (km) Brightness Sun altitude
Rises 14:04:47 0° 360° (N) 3,243 6.1 -8.0°
Reaches altitude 10° 14:08:02 10° 338° (NNW) 2,312 5.1 -7.5°
Maximum altitude 14:10:50 15° 305° (NW) 1,979 4.5 -7.1°
Drops below altitude 10° 14:13:37 10° 271° (W) 2,305 4.9 -6.6°
Sets 14:16:52 0° 249° (WSW) 3,227 5.8 -6.1°
